Preview of NWS' New Version of Forecast
This preview is not operational and should not be used for support decisions.

Regional Weather Roundup (RWR)

Issued by National Weather Service (NWS)

                            
000
ASUS46 KPQR 182010
RWROR 

OREGON REGIONAL WEATHER ROUNDUP
NATIONAL WEATHER SERVICE PORTLAND OR
1200 PM PST FRI JAN 18 2019

NOTE: "FAIR" INDICATES FEW OR NO CLOUDS BELOW 12,000 FEET WITH
NO SIGNIFICANT WEATHER AND/OR OBSTRUCTIONS TO VISIBILITY.

ORZ001>013-182100-
NORTHWEST OREGON

  
CITY           SKY/WX    TMP DP  RH WIND       PRES   REMARKS
ASTORIA        LGT RAIN  47  45  93 SE7       30.04F                  
TILLAMOOK      LGT RAIN  50  43  76 SE8       30.08F                  
NEWPORT        LGT RAIN  46  45  93 E8        30.07F                  
PORTLAND       CLOUDY    47  39  74 SE10      30.14F                  
VANCOUVER WA   CLOUDY    45  40  82 SE5       30.13F                  
SCAPPOOSE      LGT RAIN  47  42  83 S3        30.13F                  
HILLSBORO      LGT RAIN  45  42  89 SW3       30.13F                  
AURORA         CLOUDY    47  44  90 W3        30.15S                  
MCMINNVILLE    LGT RAIN  44  43  96 E5        30.12F FOG              
SALEM          LGT RAIN  46  41  82 SE3       30.12F                  
CORVALLIS      LGT RAIN  45  42  89 S9        30.12F                  
EUGENE         LGT RAIN  46  40  79 SE7       30.12F                  
$$

ORZ021-028-182100-
SOUTHWEST OREGON

  
CITY           SKY/WX    TMP DP  RH WIND       PRES   REMARKS
NORTH BEND     CLOUDY    49  45  86 SE10      30.04F                  
BROOKINGS      RAIN      50  48  93 SE10G17   30.13F FOG              
ROSEBURG       LGT RAIN  45  42  89 CALM      30.12F                  
SEXTON SUMMIT  LGT RAIN  33  33 100 SE18G25   30.08F VSB 1/4 WCI  22  
GRANTS PASS    LGT RAIN  41  41 100 CALM      30.19                   
MEDFORD        LGT RAIN  39  37  92 W3        30.21F FOG              
$$

ORZ014>016-041-182100-
COLUMBIA GORGE

  
CITY           SKY/WX    TMP DP  RH WIND       PRES   REMARKS
TROUTDALE      CLOUDY    46  39  76 E18       30.14F                  
HOOD RIVER     CLOUDY    37  36  93 CALM      30.21F FOG              
THE DALLES     CLOUDY    35  34  96 W6        30.23S FOG              
$$

ORZ029>031-041-044-049-050-061>064-502-503-505>511-182100-
EASTERN OREGON

  
CITY           SKY/WX    TMP DP  RH WIND       PRES   REMARKS
MADRAS         CLOUDY    43  30  61 SE14      30.17F                  
REDMOND        CLOUDY    42  29  59 S10       30.16F                  
BEND           CLOUDY    39  28  65 S13G20    30.17S WCI  32          
PRINEVILLE     CLOUDY    41  28  60 SE14G20   30.16                   
KLAMATH FALLS  SNOW      33  32  96 SE15      30.22F VSB 1/2 WCI  23  
LAKEVIEW       LGT SNOW  32  30  93 S10       30.26F FOG     WCI  24  
HERMISTON      CLOUDY    50  34  54 N5        30.21F                  
PENDLETON      CLOUDY    47  33  58 SE5       30.20F                  
JOHN DAY       PTSUNNY   42  30  64 S9        30.21                   
MEACHAM        CLOUDY    35  31  85 CALM      30.19F                  
LA GRANDE      CLOUDY    41  29  62 S10       30.23F                  
BAKER CITY     CLOUDY    40  31  70 SE8       30.22F                  
BURNS          CLOUDY    34  27  75 E3        30.25F                  
ROME             N/A     42  25  50 S13       30.25F                  
ONTARIO        CLOUDY    44  32  62 SE5       30.31F                  
$$